Location: La Pernelle
(49.6188°N, 1.2999°W)
Time: 08:12:32
(UTC+00:00)

SL-16 R/B - Pass Details

Date: 01 November 2021
Orbit: 842 x 846 km, 71.0° (Epoch: 04 December)

Event Time Altitude Azimuth Distance (km) Brightness Sun altitude
Rises 17:40:59 0° 228° (SW) 3,393 6.5 -9.9°
Reaches altitude 10° 17:43:32 10° 235° (SW) 2,462 5.8 -10.3°
Maximum altitude 17:48:56 45° 308° (NW) 1,148 3.3 -11.1°
Drops below altitude 10° 17:54:23 10° 20° (NNE) 2,478 4.4 -12.0°
Sets 17:56:58 0° 27° (NNE) 3,417 5.0 -12.4°
